Terminal Aerodrome Forecast
Issued by NWS

Home | Current Version | Previous Version | Text Only | Print | Product List | Glossary On
Versions: 1 2 3 4 5 6 7 8 9 10 11 12 13 14 15 16 17 18 19 20 21 22 23 24 25
000
FTUS45 KVEF 261738
TAFLAS
TAF
KLAS 261738Z 2618/2718 02003KT P6SM FEW250
     FM262000 14007KT P6SM FEW100 FEW250
     FM270200 19007KT P6SM FEW250=

USA.gov is the U.S. government's official web portal to all federal, state and local government web resources and services.